WXM80 ListenWXM80 Stop

You find our weather info also at:

UK Metoffice

WeatherCloud

Weather Underground

Northeastern Weather Network

AWEKAS

Citizen Weather Observer Program (CWOP)

HAMweather, WeatherForYou, PWS Weather


Weather Underground History page Text

Daily Summary for March 25, 2016 Units:  English    Metric   Both
« Previous Day
Next Day »
Daily Weekly Monthly Yearly Custom
  High: Low: Average:
Temperature: 67.4 °F 43.4 °F 56.3 °F
Dew Point: 60.6 °F 36.6 °F 51.7 °F
Humidity: 98 % 67 % 85 %
Wind Speed: 11.1 mph 0.0 mph 4.6 mph
Wind Gust: 21.9 mph - -
Wind:- - SSE
Pressure: 30.03 in 29.68 in -
Precipitation: 0.00 in    
Historical Graphs
 
 
Tabular Data for March 25, 2016
Time Temperature Dew Point Pressure Wind Wind Speed Wind Gust Humidity Rainfall Rate (Hourly)
00:04 43.4 °F 42.6 °F 29.85 in ENE 4.4 mph 5.8 mph 97 % 0.00 in
00:09 43.5 °F 42.7 °F 29.84 in ENE 4.9 mph 6.9 mph 97 % 0.00 in
00:14 43.6 °F 42.8 °F 29.85 in East 0.1 mph 2.3 mph 97 % 0.00 in
00:19 43.7 °F 42.9 °F 29.85 in NE 1.6 mph 2.3 mph 97 % 0.00 in
00:24 43.8 °F 43.0 °F 29.85 in NNE 4.3 mph 6.0 mph 97 % 0.00 in
00:30 44.0 °F 43.2 °F 29.85 in NNE 1.3 mph 3.5 mph 97 % 0.00 in
00:35 44.0 °F 43.2 °F 29.85 in ENE 1.0 mph 3.5 mph 97 % 0.00 in
00:40 44.0 °F 43.2 °F 29.84 in ENE 2.7 mph 6.9 mph 97 % 0.00 in
00:45 43.9 °F 43.1 °F 29.84 in ENE 0.5 mph 2.3 mph 97 % 0.00 in
00:50 44.1 °F 43.3 °F 29.84 in ENE 2.8 mph 3.5 mph 97 % 0.00 in
00:55 44.1 °F 43.3 °F 29.83 in ENE 2.8 mph 4.0 mph 97 % 0.00 in
01:00 44.2 °F 43.4 °F 29.83 in ENE 2.6 mph 3.5 mph 97 % 0.00 in
01:05 44.2 °F 43.4 °F 29.83 in ENE 2.2 mph 3.5 mph 97 % 0.00 in
01:10 44.2 °F 43.4 °F 29.83 in ENE 2.3 mph 3.5 mph 97 % 0.00 in
01:15 44.3 °F 43.5 °F 29.82 in ENE 2.5 mph 3.5 mph 97 % 0.00 in
01:21 44.2 °F 43.4 °F 29.82 in ENE 2.8 mph 4.6 mph 97 % 0.00 in
01:26 44.2 °F 43.4 °F 29.81 in ENE 2.0 mph 4.6 mph 97 % 0.00 in
01:36 44.2 °F 43.4 °F 29.81 in ENE 0.6 mph 1.2 mph 97 % 0.00 in
01:41 44.1 °F 43.3 °F 29.81 in ENE 0.9 mph 2.3 mph 97 % 0.00 in
01:46 44.2 °F 43.4 °F 29.81 in ENE 0.5 mph 2.0 mph 97 % 0.00 in
01:51 44.2 °F 43.4 °F 29.80 in ENE 0.1 mph 2.3 mph 97 % 0.00 in
01:56 44.1 °F 43.3 °F 29.80 in ENE 0.5 mph 2.3 mph 97 % 0.00 in
02:01 44.1 °F 43.3 °F 29.79 in ENE 1.1 mph 2.3 mph 97 % 0.00 in
02:06 44.1 °F 43.3 °F 29.79 in ENE 0.4 mph 3.5 mph 97 % 0.00 in
02:12 44.1 °F 43.3 °F 29.78 in ENE 1.1 mph 2.3 mph 97 % 0.00 in
02:17 44.1 °F 43.3 °F 29.78 in ENE 1.2 mph 2.3 mph 97 % 0.00 in
02:22 44.0 °F 43.2 °F 29.77 in ENE 1.2 mph 3.5 mph 97 % 0.00 in
02:27 44.1 °F 43.3 °F 29.77 in ENE 0.4 mph 2.3 mph 97 % 0.00 in
02:32 44.1 °F 43.3 °F 29.77 in Calm   1.2 mph 97 % 0.00 in
02:37 44.2 °F 43.4 °F 29.76 in ENE 0.1 mph 1.2 mph 97 % 0.00 in
02:42 44.7 °F 43.9 °F 29.76 in SW 3.4 mph 4.6 mph 97 % 0.00 in
02:47 46.0 °F 45.5 °F 29.76 in SW 0.9 mph 3.5 mph 98 % 0.00 in
02:52 47.3 °F 46.8 °F 29.76 in WSW 4.1 mph 8.1 mph 98 % 0.00 in
03:03 49.7 °F 49.2 °F 29.75 in SW 3.3 mph 9.2 mph 98 % 0.00 in
03:08 50.6 °F 50.1 °F 29.74 in SSW 5.6 mph 11.5 mph 98 % 0.00 in
03:13 51.4 °F 50.9 °F 29.73 in South 4.5 mph 9.2 mph 98 % 0.00 in
03:18 51.7 °F 51.2 °F 29.74 in SW 3.4 mph 6.9 mph 98 % 0.00 in
03:23 51.9 °F 51.4 °F 29.74 in SSW 6.9 mph 11.5 mph 98 % 0.00 in
03:28 52.2 °F 51.7 °F 29.73 in SW 5.4 mph 9.0 mph 98 % 0.00 in
03:33 52.3 °F 51.8 °F 29.73 in SSW 6.1 mph 10.0 mph 98 % 0.00 in
03:38 52.4 °F 51.9 °F 29.72 in SW 8.3 mph 13.8 mph 98 % 0.00 in
03:43 52.6 °F 52.1 °F 29.72 in South 5.5 mph 10.4 mph 98 % 0.00 in
03:48 52.6 °F 52.1 °F 29.72 in SW 8.4 mph 15.0 mph 98 % 0.00 in
03:54 52.7 °F 52.2 °F 29.72 in SW 4.5 mph 9.2 mph 98 % 0.00 in
03:59 52.8 °F 52.3 °F 29.72 in SW 5.8 mph 11.5 mph 98 % 0.00 in
04:04 52.8 °F 52.3 °F 29.71 in SSW 5.6 mph 10.4 mph 98 % 0.00 in
04:09 52.8 °F 52.3 °F 29.72 in SSW 5.8 mph 11.5 mph 98 % 0.00 in
04:14 52.9 °F 52.4 °F 29.71 in SSW 3.5 mph 6.9 mph 98 % 0.00 in
04:19 53.0 °F 52.5 °F 29.71 in SSW 6.3 mph 11.5 mph 98 % 0.00 in
04:24 53.1 °F 52.6 °F 29.71 in South 5.5 mph 12.7 mph 98 % 0.00 in
04:29 53.1 °F 52.6 °F 29.71 in SSW 6.4 mph 13.0 mph 98 % 0.00 in
04:34 53.2 °F 52.7 °F 29.71 in SSW 7.6 mph 11.5 mph 98 % 0.00 in
04:40 53.3 °F 52.5 °F 29.71 in SW 7.0 mph 17.3 mph 97 % 0.00 in
04:45 53.4 °F 52.6 °F 29.71 in SSW 7.8 mph 11.0 mph 97 % 0.00 in
04:50 53.5 °F 52.7 °F 29.70 in South 6.6 mph 11.0 mph 97 % 0.00 in
04:55 53.6 °F 52.8 °F 29.70 in SW 5.9 mph 21.9 mph 97 % 0.00 in
05:00 53.6 °F 52.5 °F 29.70 in SSW 5.3 mph 9.2 mph 96 % 0.00 in
05:05 53.7 °F 52.6 °F 29.70 in SSW 6.8 mph 12.7 mph 96 % 0.00 in
05:10 53.7 °F 52.6 °F 29.70 in SSW 6.1 mph 10.4 mph 96 % 0.00 in
05:15 53.7 °F 52.6 °F 29.70 in SSW 4.3 mph 7.0 mph 96 % 0.00 in
05:20 53.8 °F 52.4 °F 29.69 in SSW 9.3 mph 12.7 mph 95 % 0.00 in
05:25 53.8 °F 52.4 °F 29.70 in South 5.9 mph 10.4 mph 95 % 0.00 in
05:31 53.8 °F 52.4 °F 29.70 in SSE 7.9 mph 13.8 mph 95 % 0.00 in
05:36 53.9 °F 52.5 °F 29.70 in SSW 5.2 mph 9.2 mph 95 % 0.00 in
05:41 53.9 °F 52.5 °F 29.70 in South 8.6 mph 18.4 mph 95 % 0.00 in
05:46 54.0 °F 52.3 °F 29.70 in SSW 5.9 mph 9.2 mph 94 % 0.00 in
05:51 53.9 °F 52.2 °F 29.69 in SSW 6.7 mph 9.2 mph 94 % 0.00 in
05:56 53.9 °F 52.2 °F 29.69 in South 7.7 mph 16.0 mph 94 % 0.00 in
06:01 53.9 °F 52.2 °F 29.69 in SSW 7.5 mph 11.5 mph 94 % 0.00 in
06:06 53.9 °F 52.2 °F 29.69 in SSW 4.0 mph 9.2 mph 94 % 0.00 in
06:11 53.9 °F 52.2 °F 29.69 in SSE 7.4 mph 11.5 mph 94 % 0.00 in
06:16 53.9 °F 52.2 °F 29.69 in SSW 5.4 mph 8.1 mph 94 % 0.00 in
06:22 53.8 °F 52.1 °F 29.69 in SSW 7.7 mph 12.7 mph 94 % 0.00 in
06:27 53.7 °F 52.0 °F 29.69 in SSW 4.4 mph 12.7 mph 94 % 0.00 in
06:32 53.8 °F 52.1 °F 29.69 in SSW 5.6 mph 11.5 mph 94 % 0.00 in
06:37 53.9 °F 52.2 °F 29.70 in South 8.7 mph 15.0 mph 94 % 0.00 in
06:42 53.9 °F 52.2 °F 29.69 in SSE 7.0 mph 10.4 mph 94 % 0.00 in
06:47 54.0 °F 52.3 °F 29.69 in SSW 6.5 mph 11.5 mph 94 % 0.00 in
06:52 54.0 °F 52.0 °F 29.69 in SSW 7.1 mph 13.8 mph 93 % 0.00 in
06:57 54.0 °F 52.0 °F 29.69 in SSW 4.8 mph 10.4 mph 93 % 0.00 in
07:02 54.1 °F 52.1 °F 29.69 in SSE 4.8 mph 10.4 mph 93 % 0.00 in
07:07 54.1 °F 52.1 °F 29.69 in SSW 5.2 mph 10.4 mph 93 % 0.00 in
07:13 54.1 °F 52.1 °F 29.69 in SW 6.4 mph 8.1 mph 93 % 0.00 in
07:18 54.2 °F 52.2 °F 29.70 in SSW 1.9 mph 5.0 mph 93 % 0.00 in
07:23 54.2 °F 52.2 °F 29.69 in South 3.3 mph 8.1 mph 93 % 0.00 in
07:28 54.3 °F 52.3 °F 29.70 in South 4.7 mph 7.0 mph 93 % 0.00 in
07:33 54.3 °F 52.3 °F 29.70 in South 4.3 mph 8.1 mph 93 % 0.00 in
07:38 54.4 °F 52.4 °F 29.70 in South 4.5 mph 9.2 mph 93 % 0.00 in
07:43 54.5 °F 52.5 °F 29.71 in South 6.4 mph 10.4 mph 93 % 0.00 in
07:48 54.5 °F 52.5 °F 29.71 in SSW 6.2 mph 9.2 mph 93 % 0.00 in
07:53 54.6 °F 52.6 °F 29.71 in SSW 5.3 mph 11.5 mph 93 % 0.00 in
07:58 54.6 °F 52.6 °F 29.71 in SSW 6.6 mph 8.0 mph 93 % 0.00 in
08:04 54.7 °F 52.7 °F 29.71 in South 3.8 mph 9.0 mph 93 % 0.00 in
08:09 54.7 °F 52.7 °F 29.70 in South 5.5 mph 9.2 mph 93 % 0.00 in
08:14 54.8 °F 52.8 °F 29.71 in SSW 4.7 mph 10.4 mph 93 % 0.00 in
08:19 55.0 °F 53.0 °F 29.71 in South 6.9 mph 11.5 mph 93 % 0.00 in
08:24 55.1 °F 53.1 °F 29.70 in South 4.5 mph 5.8 mph 93 % 0.00 in
08:29 55.3 °F 53.3 °F 29.71 in SSW 2.6 mph 9.2 mph 93 % 0.00 in
08:34 55.4 °F 53.4 °F 29.70 in SSW 3.0 mph 8.1 mph 93 % 0.00 in
08:39 55.5 °F 53.5 °F 29.71 in SSW 5.9 mph 9.2 mph 93 % 0.00 in
08:44 55.7 °F 53.7 °F 29.71 in SSW 4.0 mph 9.0 mph 93 % 0.00 in
08:49 55.9 °F 53.9 °F 29.70 in South 8.3 mph 12.7 mph 93 % 0.00 in
08:55 56.1 °F 53.8 °F 29.71 in SSE 5.1 mph 6.0 mph 92 % 0.00 in
09:00 56.3 °F 54.0 °F 29.71 in SSW 6.4 mph 9.0 mph 92 % 0.00 in
09:05 56.7 °F 54.4 °F 29.71 in SSW 4.1 mph 6.9 mph 92 % 0.00 in
09:10 57.0 °F 54.7 °F 29.71 in South 3.5 mph 11.5 mph 92 % 0.00 in
09:15 57.3 °F 54.7 °F 29.70 in SSE 4.3 mph 6.9 mph 91 % 0.00 in
09:20 57.7 °F 55.1 °F 29.70 in South 6.1 mph 11.5 mph 91 % 0.00 in
09:25 58.0 °F 55.1 °F 29.70 in South 3.6 mph 8.0 mph 90 % 0.00 in
09:30 58.4 °F 55.2 °F 29.70 in South 4.4 mph 10.4 mph 89 % 0.00 in
09:35 58.6 °F 55.4 °F 29.70 in SSW 4.7 mph 9.2 mph 89 % 0.00 in
09:40 58.8 °F 55.6 °F 29.70 in SSW 5.5 mph 10.0 mph 89 % 0.00 in
09:46 58.9 °F 55.4 °F 29.70 in South 4.0 mph 10.4 mph 88 % 0.00 in
09:51 58.9 °F 55.0 °F 29.70 in SSE 6.2 mph 12.7 mph 87 % 0.00 in
09:56 58.8 °F 54.9 °F 29.70 in SE 4.3 mph 6.9 mph 87 % 0.00 in
10:01 58.8 °F 54.9 °F 29.70 in SSE 3.8 mph 6.9 mph 87 % 0.00 in
10:06 58.7 °F 55.2 °F 29.71 in SSW 5.4 mph 8.1 mph 88 % 0.00 in
10:11 58.7 °F 55.2 °F 29.70 in SW 6.6 mph 10.4 mph 88 % 0.00 in
10:16 58.7 °F 55.2 °F 29.71 in South 5.9 mph 8.1 mph 88 % 0.00 in
10:21 58.7 °F 55.2 °F 29.71 in SSW 5.1 mph 10.4 mph 88 % 0.00 in
10:26 58.8 °F 55.3 °F 29.71 in South 6.3 mph 11.5 mph 88 % 0.00 in
10:31 58.9 °F 55.4 °F 29.71 in South 5.2 mph 8.1 mph 88 % 0.00 in
10:37 59.0 °F 55.4 °F 29.71 in SSW 4.1 mph 9.2 mph 88 % 0.00 in
10:42 59.2 °F 55.6 °F 29.71 in SSW 4.5 mph 8.1 mph 88 % 0.00 in
10:47 59.5 °F 55.9 °F 29.71 in SSW 5.3 mph 10.4 mph 88 % 0.00 in
10:52 59.8 °F 56.2 °F 29.72 in South 6.1 mph 9.2 mph 88 % 0.00 in
10:57 59.9 °F 56.0 °F 29.72 in South 4.5 mph 6.9 mph 87 % 0.00 in
11:02 60.0 °F 56.1 °F 29.71 in South 6.6 mph 10.0 mph 87 % 0.00 in
11:12 60.3 °F 56.4 °F 29.71 in South 4.8 mph 10.0 mph 87 % 0.00 in
11:17 60.4 °F 56.2 °F 29.72 in SSW 5.7 mph 8.1 mph 86 % 0.00 in
11:22 60.4 °F 56.2 °F 29.71 in SSW 4.3 mph 9.2 mph 86 % 0.00 in
11:28 60.5 °F 56.3 °F 29.71 in South 6.1 mph 10.4 mph 86 % 0.00 in
11:33 60.6 °F 56.4 °F 29.71 in South 5.9 mph 13.8 mph 86 % 0.00 in
11:38 60.6 °F 56.4 °F 29.71 in South 7.1 mph 10.4 mph 86 % 0.00 in
11:43 60.6 °F 56.4 °F 29.71 in South 6.8 mph 14.0 mph 86 % 0.00 in
11:48 60.7 °F 56.5 °F 29.70 in South 5.1 mph 8.1 mph 86 % 0.00 in
11:53 60.9 °F 56.7 °F 29.70 in South 4.4 mph 9.2 mph 86 % 0.00 in
11:58 61.1 °F 56.6 °F 29.70 in South 4.5 mph 13.8 mph 85 % 0.00 in
12:03 61.3 °F 57.1 °F 29.70 in South 6.4 mph 9.2 mph 86 % 0.00 in
12:08 61.7 °F 57.5 °F 29.71 in South 4.9 mph 6.0 mph 86 % 0.00 in
12:13 62.0 °F 57.4 °F 29.70 in SSW 6.8 mph 8.0 mph 85 % 0.00 in
12:19 62.2 °F 57.6 °F 29.71 in South 4.7 mph 9.2 mph 85 % 0.00 in
12:24 62.4 °F 57.5 °F 29.71 in South 8.1 mph 13.8 mph 84 % 0.00 in
12:29 62.4 °F 57.5 °F 29.71 in SSE 5.3 mph 11.5 mph 84 % 0.00 in
12:34 62.2 °F 57.3 °F 29.70 in SSW 4.7 mph 6.9 mph 84 % 0.00 in
12:39 62.2 °F 57.3 °F 29.71 in SSW 3.9 mph 5.8 mph 84 % 0.00 in
12:44 62.3 °F 57.4 °F 29.71 in SE 2.9 mph 5.0 mph 84 % 0.00 in
12:49 62.4 °F 57.5 °F 29.71 in SSW 2.6 mph 8.1 mph 84 % 0.00 in
12:54 62.6 °F 57.7 °F 29.71 in SSW 5.8 mph 9.2 mph 84 % 0.00 in
12:59 62.9 °F 58.0 °F 29.70 in South 6.1 mph 9.2 mph 84 % 0.00 in
13:04 63.4 °F 58.5 °F 29.70 in SSE 3.3 mph 4.6 mph 84 % 0.00 in
13:10 64.1 °F 58.5 °F 29.69 in SSW 0.7 mph 3.5 mph 82 % 0.00 in
13:15 65.0 °F 59.4 °F 29.69 in South 4.1 mph 6.9 mph 82 % 0.00 in
13:20 65.9 °F 59.6 °F 29.69 in SSW 3.4 mph 4.6 mph 80 % 0.00 in
13:25 67.0 °F 60.6 °F 29.69 in South 5.1 mph 7.0 mph 80 % 0.00 in
13:30 67.3 °F 59.8 °F 29.69 in SSE 4.2 mph 8.1 mph 77 % 0.00 in
13:35 67.4 °F 59.9 °F 29.70 in South 2.2 mph 5.8 mph 77 % 0.00 in
13:40 67.1 °F 58.9 °F 29.71 in South 2.0 mph 5.8 mph 75 % 0.00 in
13:45 66.6 °F 58.4 °F 29.71 in SSW 2.1 mph 5.8 mph 75 % 0.00 in
13:50 65.8 °F 58.0 °F 29.70 in South 4.1 mph 9.2 mph 76 % 0.00 in
13:55 65.3 °F 57.9 °F 29.70 in SSE 1.3 mph 3.5 mph 77 % 0.00 in
14:01 65.0 °F 58.0 °F 29.70 in South 2.3 mph 3.5 mph 78 % 0.00 in
14:06 64.9 °F 57.9 °F 29.70 in South 3.6 mph 10.4 mph 78 % 0.00 in
14:11 64.7 °F 57.7 °F 29.70 in SSW 2.1 mph 6.9 mph 78 % 0.00 in
14:16 64.4 °F 57.7 °F 29.70 in South 2.7 mph 8.1 mph 79 % 0.00 in
14:21 64.1 °F 57.5 °F 29.70 in South 4.3 mph 8.1 mph 79 % 0.00 in
14:26 63.9 °F 57.3 °F 29.70 in SSW 3.3 mph 5.8 mph 79 % 0.00 in
14:31 63.9 °F 57.3 °F 29.70 in South 2.9 mph 5.8 mph 79 % 0.00 in
14:36 63.7 °F 57.4 °F 29.69 in South 4.1 mph 5.8 mph 80 % 0.00 in
14:41 63.7 °F 57.8 °F 29.70 in South 4.5 mph 7.0 mph 81 % 0.00 in
14:46 63.7 °F 57.4 °F 29.69 in SE 3.0 mph 5.8 mph 80 % 0.00 in
14:52 63.8 °F 57.9 °F 29.70 in South 4.1 mph 6.9 mph 81 % 0.00 in
14:57 64.1 °F 57.8 °F 29.69 in South 5.3 mph 8.1 mph 80 % 0.00 in
15:02 64.3 °F 58.0 °F 29.69 in South 2.6 mph 6.9 mph 80 % 0.00 in
15:07 64.5 °F 58.2 °F 29.69 in SSW 2.5 mph 4.0 mph 80 % 0.00 in
15:12 64.8 °F 58.5 °F 29.68 in SSE 1.8 mph 3.5 mph 80 % 0.00 in
15:17 65.1 °F 58.4 °F 29.68 in SW 4.4 mph 6.0 mph 79 % 0.00 in
15:22 65.3 °F 58.3 °F 29.68 in SSE 3.1 mph 5.0 mph 78 % 0.00 in
15:27 65.4 °F 58.0 °F 29.68 in SW 3.0 mph 4.0 mph 77 % 0.00 in
15:37 65.6 °F 58.2 °F 29.68 in SSW 3.0 mph 3.5 mph 77 % 0.00 in
15:43 65.6 °F 58.2 °F 29.68 in South 2.7 mph 6.0 mph 77 % 0.00 in
15:48 65.7 °F 58.3 °F 29.68 in SSW 2.1 mph 5.0 mph 77 % 0.00 in
15:53 65.6 °F 58.2 °F 29.69 in SSW 2.2 mph 6.0 mph 77 % 0.00 in
15:58 65.6 °F 58.2 °F 29.68 in South 3.2 mph 5.8 mph 77 % 0.00 in
16:03 65.6 °F 58.6 °F 29.69 in SSW 3.9 mph 4.6 mph 78 % 0.00 in
16:08 65.5 °F 58.5 °F 29.69 in SSW 3.6 mph 5.8 mph 78 % 0.00 in
16:13 65.5 °F 58.5 °F 29.69 in SW 4.9 mph 6.9 mph 78 % 0.00 in
16:18 65.7 °F 58.7 °F 29.69 in South 4.4 mph 5.8 mph 78 % 0.00 in
16:23 65.9 °F 58.8 °F 29.69 in South 4.9 mph 6.9 mph 78 % 0.00 in
16:28 66.2 °F 58.8 °F 29.69 in South 4.7 mph 8.0 mph 77 % 0.00 in
16:39 66.3 °F 58.9 °F 29.70 in East 6.1 mph 9.2 mph 77 % 0.00 in
16:44 66.4 °F 58.6 °F 29.70 in South 2.4 mph 6.9 mph 76 % 0.00 in
16:49 66.5 °F 59.1 °F 29.70 in SSW 4.3 mph 5.8 mph 77 % 0.00 in
16:54 66.5 °F 58.7 °F 29.70 in South 2.9 mph 5.8 mph 76 % 0.00 in
16:59 66.5 °F 59.1 °F 29.71 in SSE 2.3 mph 3.5 mph 77 % 0.00 in
17:04 66.5 °F 59.1 °F 29.71 in South 3.2 mph 4.6 mph 77 % 0.00 in
17:09 66.5 °F 59.1 °F 29.70 in SSW 4.0 mph 5.0 mph 77 % 0.00 in
17:14 66.4 °F 59.0 °F 29.71 in South 4.1 mph 7.0 mph 77 % 0.00 in
17:19 66.4 °F 59.0 °F 29.70 in SSW 3.4 mph 4.6 mph 77 % 0.00 in
17:25 66.4 °F 59.0 °F 29.71 in SSW 3.3 mph 5.8 mph 77 % 0.00 in
17:30 66.4 °F 59.0 °F 29.71 in South 4.2 mph 6.9 mph 77 % 0.00 in
17:35 66.4 °F 59.0 °F 29.71 in SSW 3.8 mph 5.0 mph 77 % 0.00 in
17:40 66.4 °F 59.0 °F 29.72 in SSW 3.6 mph 4.6 mph 77 % 0.00 in
17:45 66.4 °F 58.6 °F 29.72 in SSW 3.1 mph 4.6 mph 76 % 0.00 in
17:50 66.3 °F 58.5 °F 29.72 in SW 1.9 mph 4.6 mph 76 % 0.00 in
17:55 66.2 °F 58.4 °F 29.73 in SSW 4.5 mph 7.0 mph 76 % 0.00 in
18:00 66.1 °F 58.3 °F 29.73 in SW 3.0 mph 4.6 mph 76 % 0.00 in
18:05 65.9 °F 58.1 °F 29.73 in WSW 4.5 mph 6.9 mph 76 % 0.00 in
18:11 65.9 °F 58.1 °F 29.73 in SW 1.4 mph 3.5 mph 76 % 0.00 in
18:16 65.8 °F 58.0 °F 29.73 in SW 1.7 mph 3.5 mph 76 % 0.00 in
18:21 65.7 °F 57.9 °F 29.73 in SSW 2.8 mph 4.6 mph 76 % 0.00 in
18:26 65.6 °F 57.8 °F 29.73 in SW 2.9 mph 4.6 mph 76 % 0.00 in
18:31 65.5 °F 57.7 °F 29.74 in SW 2.1 mph 3.5 mph 76 % 0.00 in
18:36 65.3 °F 57.5 °F 29.74 in SW 1.8 mph 3.5 mph 76 % 0.00 in
18:41 65.1 °F 57.3 °F 29.74 in SW 2.2 mph 3.5 mph 76 % 0.00 in
18:46 64.9 °F 57.2 °F 29.74 in SW 1.2 mph 2.3 mph 76 % 0.00 in
18:51 64.7 °F 57.3 °F 29.74 in WSW 2.9 mph 4.0 mph 77 % 0.00 in
18:56 64.5 °F 56.8 °F 29.75 in WSW 3.0 mph 4.6 mph 76 % 0.00 in
19:07 64.1 °F 56.7 °F 29.75 in WSW 3.1 mph 6.0 mph 77 % 0.00 in
19:12 63.9 °F 56.2 °F 29.78 in NW 5.2 mph 12.7 mph 76 % 0.00 in
19:17 63.4 °F 55.0 °F 29.79 in West 4.0 mph 11.5 mph 74 % 0.00 in
19:22 62.7 °F 53.9 °F 29.80 in West 4.4 mph 6.9 mph 73 % 0.00 in
19:27 61.9 °F 52.0 °F 29.80 in NW 2.2 mph 5.8 mph 70 % 0.00 in
19:32 60.9 °F 49.9 °F 29.80 in NNE 2.7 mph 5.8 mph 67 % 0.00 in
19:37 59.7 °F 49.1 °F 29.81 in North 4.8 mph 8.1 mph 68 % 0.00 in
19:42 58.9 °F 49.1 °F 29.81 in NNW 2.2 mph 5.8 mph 70 % 0.00 in
19:47 58.5 °F 48.7 °F 29.82 in NNW 4.7 mph 8.1 mph 70 % 0.00 in
19:53 58.0 °F 48.3 °F 29.83 in NNE 2.1 mph 4.6 mph 70 % 0.00 in
19:58 57.7 °F 48.0 °F 29.83 in North 2.6 mph 6.0 mph 70 % 0.00 in
20:03 57.1 °F 47.8 °F 29.83 in NNE 5.0 mph 9.0 mph 71 % 0.00 in
20:08 56.8 °F 47.5 °F 29.84 in North 6.0 mph 8.1 mph 71 % 0.00 in
20:13 56.6 °F 47.3 °F 29.84 in NNE 6.5 mph 11.5 mph 71 % 0.00 in
20:23 56.4 °F 47.1 °F 29.85 in NNE 4.2 mph 6.9 mph 71 % 0.00 in
20:28 56.2 °F 46.9 °F 29.86 in NNW 4.3 mph 8.1 mph 71 % 0.00 in
20:33 56.1 °F 47.2 °F 29.86 in North 2.5 mph 6.9 mph 72 % 0.00 in
20:38 55.9 °F 47.4 °F 29.87 in NNE 4.2 mph 6.9 mph 73 % 0.00 in
20:44 55.8 °F 47.3 °F 29.87 in NNE 6.6 mph 9.0 mph 73 % 0.00 in
20:49 55.4 °F 46.5 °F 29.88 in NNE 3.8 mph 9.2 mph 72 % 0.00 in
20:54 54.9 °F 45.7 °F 29.89 in NNE 6.4 mph 9.2 mph 71 % 0.00 in
20:59 54.3 °F 45.1 °F 29.89 in NNE 5.3 mph 10.4 mph 71 % 0.00 in
21:04 53.8 °F 45.0 °F 29.89 in North 7.8 mph 11.5 mph 72 % 0.00 in
21:09 53.2 °F 44.4 °F 29.89 in North 9.7 mph 15.0 mph 72 % 0.00 in
21:14 53.0 °F 44.6 °F 29.90 in NNE 7.1 mph 10.4 mph 73 % 0.00 in
21:19 52.6 °F 44.2 °F 29.91 in North 11.1 mph 15.0 mph 73 % 0.00 in
21:24 52.3 °F 43.9 °F 29.92 in NE 8.4 mph 11.5 mph 73 % 0.00 in
21:29 52.2 °F 43.8 °F 29.92 in NNW 6.4 mph 11.5 mph 73 % 0.00 in
21:40 51.8 °F 43.8 °F 29.92 in North 5.6 mph 10.4 mph 74 % 0.00 in
21:45 51.4 °F 43.4 °F 29.93 in NNE 6.6 mph 9.0 mph 74 % 0.00 in
21:50 51.0 °F 43.0 °F 29.93 in NNE 4.8 mph 11.5 mph 74 % 0.00 in
21:55 50.6 °F 42.6 °F 29.94 in North 7.6 mph 10.4 mph 74 % 0.00 in
22:00 50.3 °F 42.7 °F 29.94 in NNE 6.8 mph 11.5 mph 75 % 0.00 in
22:10 49.4 °F 41.5 °F 29.95 in NNE 6.8 mph 10.4 mph 74 % 0.00 in
22:15 49.1 °F 40.8 °F 29.96 in NE 8.4 mph 16.1 mph 73 % 0.00 in
22:20 48.7 °F 40.8 °F 29.96 in North 9.0 mph 11.5 mph 74 % 0.00 in
22:26 48.3 °F 40.4 °F 29.97 in NNW 8.7 mph 12.7 mph 74 % 0.00 in
22:31 48.0 °F 40.1 °F 29.97 in NNE 6.7 mph 10.4 mph 74 % 0.00 in
22:36 47.7 °F 39.8 °F 29.97 in NNW 8.4 mph 13.8 mph 74 % 0.00 in
22:41 47.5 °F 39.6 °F 29.98 in North 8.3 mph 17.3 mph 74 % 0.00 in
22:46 47.3 °F 39.4 °F 29.99 in NNE 9.5 mph 13.8 mph 74 % 0.00 in
22:51 47.1 °F 39.6 °F 29.99 in NE 9.2 mph 11.5 mph 75 % 0.00 in
22:56 46.8 °F 39.6 °F 29.99 in North 7.4 mph 11.5 mph 76 % 0.00 in
23:01 46.6 °F 39.4 °F 29.99 in North 5.6 mph 10.0 mph 76 % 0.00 in
23:06 46.3 °F 39.1 °F 30.00 in NE 7.9 mph 9.2 mph 76 % 0.00 in
23:11 46.0 °F 38.9 °F 30.00 in NNE 7.1 mph 11.5 mph 76 % 0.00 in
23:17 45.8 °F 39.0 °F 30.00 in NNE 6.5 mph 8.1 mph 77 % 0.00 in
23:22 45.4 °F 38.6 °F 30.01 in NNE 8.1 mph 10.4 mph 77 % 0.00 in
23:27 45.1 °F 38.0 °F 30.01 in NNE 7.5 mph 11.5 mph 76 % 0.00 in
23:32 44.7 °F 37.9 °F 30.02 in NNW 7.0 mph 13.8 mph 77 % 0.00 in
23:37 44.5 °F 37.4 °F 30.02 in NNE 5.8 mph 11.5 mph 76 % 0.00 in
23:42 44.3 °F 37.5 °F 30.02 in NNE 8.2 mph 11.5 mph 77 % 0.00 in
23:47 44.0 °F 36.6 °F 30.02 in North 8.0 mph 13.8 mph 75 % 0.00 in
23:52 43.8 °F 36.7 °F 30.03 in NNW 6.6 mph 13.8 mph 76 % 0.00 in
23:57 43.7 °F 36.6 °F 30.03 in NNE 7.0 mph 11.5 mph 76 % 0.00 in
Crab Meadow Weather
Compliments of Weather Underground - 3 mb

Script developed by  Jim McMurry - jmcmurry@mwt.net Adapted for the template by  Wim van der Kuil - Leuven-Template.eu

Extremes: Alaska and Hawaii have the same heat record. In Pahala, Hawaii the temperature on April 27, 1931 was 100 degrees F. Alaska's state heat record is also 100 degrees F. on June 27, 1915 at Fort Yukon.